Das Wetter in  D-61279 Heinzenberg / Taunus





Wetter Minimum- & Maximum-Werte im April 2007

Standort: Heinzenberg / Taunus - Höhe 297 m         8 24' 1" Ost 50 21' 51" Nord
(   3-stündige Aktualisierung    letzte Aktualisierung um 19:04 am 30.04.2007  )


Messgrösse

Minimum

Maximum

Durchschnitt

Temperatur West /
Luftfeuchte West
Anklicken für Monats-Diagramm

-2,8 C

06:57
05.04.2007

22 %

17:02
15.04.2007

30,7 C

16:57
15.04.2007

90 %

06:38
11.04.2007

Temp

12,9 C

Feuchte

59 %

Temperatur Ost /
Luftfeuchte Ost
Anklicken für Monats-Diagramm

-1,9 C

07:22
05.04.2007

--

--
--

29,2 C

16:15
28.04.2007

--

--
--

12,8 C

--

Luftdruck Anklicken für Monats-Diagramm

1013,1 hPa

14:45
03.04.2007

1029,4 hPa

07:39
02.04.2007

1020,8 hPa

Taupunkt

-6,5 C

06:32
05.04.2007

13,2 C

13:49
17.04.2007

4,4 C

Windchill
( gefühlte Temperatur )

-7,6 C

06:16
04.04.2007

30,6 C

16:52
15.04.2007

12,2 C

Windgeschwindigkeit /
Windrichtung
Anklicken für Monats-Diagramm

---

36,2 km/h / W-NW

15:26
09.04.2007

4,7 km/h
SO

Helligkeit /
Sonnenschein
Anklicken für Monats-Diagramm
Anklicken für Monats-Diagramm

Sonnenschein:

294:30 Stunden

Max: 13:05 Std am
30.04.2007

109,0 klux

13:45
18.04.2007

43 klux

Solarstrahlung Anklicken für Monats-Diagramm

---

746 W/m

13:45
18.04.2007

319 W/m

Regenmenge
    April 2007
Anklicken für Monats-Diagramm

Insgesamt 2,0 l/m

in 2:00 Stunden
an 3 Tagen

1,7 l/m

23:25
02.04.2007

Gesamtmenge

2,0 l/m

Regen-Tage
    April 2007
Anklicken für Monats-Diagramm

>   0 mm/Tag

>   2 mm/Tag

>   5 mm/Tag

> 10 mm/Tag

> 20 mm/Tag

3 Tage     
0 Tage     
0 Tage     
0 Tage     
0 Tage     

Eisige Tage April 2007 / 2006

Tmin ≤ -10C     

0 Tage

/

0 Tage

Eistage April 2007 / 2006

Tmax <     0C     

0 Tage

/

- - Tage

Frosttage April 2007 / 2006

Tmin ≤     0C     

4 Tage

/

- - Tage

Kalte Tage April 2007 / 2006

Tmax <   10C     

0 Tage

/

- - Tage

Warme Tage April 2007 / 2006

Tmax ≥   20C     

20 Tage

/

0 Tage

Sommertage April 2007 / 2006

Tmax ≥   25C     

12 Tage

/

- - Tage

Heisse Tage April 2007 / 2006

Tmax ≥   30C     

2 Tage

/

- - Tage


Monatsdiagramm April 2007

Die Kurven zeigen den Durchschnittswert des jeweiligen Tages an


Wetter-Monatsübersicht April 2007
Datum
  Temperatur
   Luftdruck
   Wind
  Regen
   Luftfeuchte
   Helligkeit

Sonnen-
schein


Temp.

Min.
Temp.

Max.
Temp.


Luftdruck

Min.
Luftdruck

Max.
Luftdruck

-Geschw.
Haupt-Richtg.

Max.
Wind

Menge /
Dauer


Feuchte

Min.
Feuchte

Max.
Feuchte


Helligkeit

Max.
Helligkeit

1.
April
11,3 C3,1 C
07:43
20,5 C
16:48
1024,5 hPa1020,0 hPa
00:03
1028,3 hPa
23:59
2,7 km/h
NO
19,2 km/h
15:33  
---
56 %33 %
15:53
79 %
08:08
38,3 klux75,1 klux
13:18
7:50 Std 
2.
April
11,0 C1,4 C
07:39
20,5 C
16:49
1025,4 hPa1020,7 hPa
22:00
1029,4 hPa
07:39
2,4 km/h
SO
25,2 km/h
15:19  
1,7 l/m
55 Minuten
57 %36 %
16:49
81 %
08:39
37,5 klux82,3 klux
14:09
7:35 Std 
3.
April
8,4 C4,9 C
06:35
15,0 C
14:45
1016,1 hPa1013,1 hPa
14:45
1021,2 hPa
00:30
9,6 km/h
N
33,2 km/h
16:45  
0,2 l/m
50 Minuten
70 %37 %
14:50
85 %
02:25
34,1 klux85,1 klux
14:40
6:41 Std 
4.
April
7,2 C1,6 C
23:57
15,4 C
17:51
1018,5 hPa1015,4 hPa
01:41
1022,1 hPa
23:57
7,0 km/h
N-NO
27,3 km/h
06:16  
0,2 l/m
15 Minuten
61 %33 %
17:26
84 %
00:56
38,5 klux93,0 klux
12:06
7:40 Std 
5.
April
6,8 C-2,8 C
06:57
18,0 C
17:41
1021,3 hPa1018,0 hPa
17:41
1023,6 hPa
08:32
5,4 km/h
W-NW
24,6 km/h
17:41  
---
59 %37 %
16:02
77 %
07:22
41,9 klux85,3 klux
12:42
10:56 Std 
6.
April
10,4 C1,3 C
06:58
20,7 C
16:58
1022,0 hPa1019,7 hPa
16:58
1024,2 hPa
06:58
4,0 km/h
W-NW
24,5 km/h
16:18  
---
64 %36 %
17:23
88 %
08:18
44,5 klux84,1 klux
13:08
10:11 Std 
7.
April
7,3 C2,6 C
05:34
12,2 C
14:04
1023,9 hPa1022,5 hPa
00:04
1027,1 hPa
23:55
2,3 km/h
SO
15,1 km/h
14:24  
---
70 %55 %
17:44
87 %
07:24
18,6 klux73,0 klux
10:54
55 Min 
8.
April
8,1 C-1,4 C
06:10
19,1 C
17:55
1025,3 hPa1021,0 hPa
18:20
1028,7 hPa
07:10
2,2 km/h
W
14,9 km/h
13:10  
---
67 %40 %
17:50
89 %
08:40
46,6 klux84,9 klux
13:30
11:25 Std 
9.
April
9,4 C0,7 C
06:31
18,0 C
15:21
1019,3 hPa1015,9 hPa
18:01
1021,9 hPa
02:56
9,4 km/h
W-NW
36,2 km/h
15:26  
---
65 %43 %
15:26
88 %
07:41
40,1 klux98,6 klux
13:11
7:51 Std 
10.
April
9,6 C2,8 C
05:12
15,7 C
13:37
1022,1 hPa1020,3 hPa
00:02
1025,5 hPa
23:57
5,9 km/h
W
23,5 km/h
13:52  
---
71 %59 %
13:27
85 %
06:37
21,7 klux84,1 klux
13:17
2:25 Std 
11.
April
11,7 C2,9 C
06:08
23,0 C
17:33
1024,5 hPa1021,5 hPa
17:33
1027,1 hPa
07:33
2,6 km/h
SO
14,7 km/h
12:48  
---
68 %39 %
17:38
90 %
06:38
47,2 klux92,3 klux
13:18
11:30 Std 
12.
April
14,1 C3,4 C
06:14
26,0 C
17:04
1022,2 hPa1019,1 hPa
17:04
1025,0 hPa
06:24
3,2 km/h
SO
22,1 km/h
15:09  
---
65 %36 %
17:24
89 %
08:24
46,4 klux84,2 klux
13:09
11:05 Std 
13.
April
17,0 C6,9 C
06:35
28,7 C
17:45
1019,8 hPa1016,7 hPa
17:45
1022,4 hPa
07:20
3,0 km/h
SO
23,9 km/h
16:40  
---
61 %32 %
15:10
88 %
07:30
46,0 klux97,9 klux
12:30
10:37 Std 
14.
April
18,4 C6,8 C
06:56
30,4 C
16:11
1020,6 hPa1018,6 hPa
16:11
1023,6 hPa
23:57
5,7 km/h
SO
22,6 km/h
15:06  
---
56 %23 %
17:21
88 %
08:01
48,5 klux84,5 klux
13:21
11:55 Std 
15.
April
18,2 C6,8 C
06:52
30,7 C
16:57
1022,6 hPa1019,6 hPa
16:57
1025,6 hPa
07:27
4,7 km/h
SO
26,3 km/h
12:12  
---
51 %22 %
17:02
83 %
07:02
49,5 klux85,9 klux
13:07
12:15 Std 
16.
April
17,2 C6,5 C
07:28
29,4 C
14:38
1021,3 hPa1018,2 hPa
19:33
1024,5 hPa
07:33
1,9 km/h
SO
22,9 km/h
13:38  
---
52 %24 %
15:38
81 %
07:33
45,1 klux89,4 klux
13:33
11:16 Std 
17.
April
13,8 C6,9 C
06:44
21,3 C
15:19
1018,9 hPa1016,6 hPa
15:24
1021,0 hPa
23:55
9,8 km/h
NW
28,6 km/h
16:39  
---
65 %54 %
15:59
79 %
07:49
36,3 klux90,3 klux
12:49
5:50 Std 
18.
April
9,2 C4,3 C
23:56
13,7 C
16:20
1023,2 hPa1021,0 hPa
00:00
1024,8 hPa
23:56
6,2 km/h
NW
24,8 km/h
16:45  
---
59 %39 %
14:00
81 %
08:35
33,3 klux109,0 klux
13:45
4:21 Std 
19.
April
9,6 C-0,6 C
06:01
19,9 C
16:56
1020,5 hPa1015,7 hPa
17:51
1025,3 hPa
03:11
6,1 km/h
W
28,5 km/h
14:11  
---
59 %32 %
16:26
85 %
08:31
48 klux88 klux
13:31
11:50 Std 
20.
April
10,2 C2,9 C
07:02
18,3 C
17:27
1020,4 hPa1018,1 hPa
00:02
1023,6 hPa
23:58
6,3 km/h
W-NW
24,6 km/h
15:17  
---
58 %33 %
16:32
85 %
08:32
48,0 klux95,8 klux
12:47
11:25 Std 
21.
April
9,3 C-0,9 C
06:48
20,4 C
17:08
1022,7 hPa1019,8 hPa
17:08
1024,5 hPa
06:48
2,0 km/h
N
17,6 km/h
16:13  
---
56 %34 %
18:38
80 %
08:28
48,3 klux91,5 klux
12:13
12:00 Std 
22.
April
12,5 C0,4 C
06:44
26,1 C
16:49
1022,1 hPa1019,1 hPa
16:49
1024,3 hPa
06:44
2,2 km/h
W-SW
20,3 km/h
15:04  
---
54 %27 %
16:59
83 %
08:29
49,1 klux87,3 klux
13:09
12:30 Std 
23.
April
15,5 C4,6 C
06:35
25,9 C
17:40
1021,1 hPa1018,4 hPa
18:35
1023,8 hPa
06:45
5,3 km/h
W
30,8 km/h
14:55  
---
52 %27 %
15:35
78 %
07:30
48,4 klux88,8 klux
13:05
10:49 Std 
24.
April
18,7 C12,1 C
05:46
27,6 C
16:36
1018,8 hPa1016,9 hPa
16:36
1020,7 hPa
08:06
2,8 km/h
NW
15,3 km/h
15:11  
---
57 %35 %
18:01
78 %
08:55
40,7 klux83,9 klux
13:56
8:55 Std 
25.
April
19,1 C11,3 C
06:32
27,2 C
17:27
1016,5 hPa1013,8 hPa
17:27
1018,5 hPa
03:22
7,7 km/h
O-SO
32,5 km/h
11:47  
---
57 %36 %
17:27
81 %
06:47
49,5 klux89,5 klux
11:42
12:05 Std 
26.
April
18,6 C9,4 C
06:48
28,6 C
16:58
1017,6 hPa1015,7 hPa
16:58
1019,8 hPa
08:28
5,0 km/h
O-SO
23,0 km/h
10:48  
---
52 %23 %
17:43
82 %
07:58
51,0 klux88,5 klux
13:08
13:00 Std 
27.
April
18,0 C7,1 C
07:04
28,5 C
15:39
1019,5 hPa1016,9 hPa
18:39
1021,4 hPa
07:04
4,4 km/h
SO
24,5 km/h
13:19  
---
55 %27 %
15:14
83 %
07:54
49,1 klux90,1 klux
14:04
11:55 Std 
28.
April
18,6 C7,6 C
06:45
29,9 C
18:15
1019,7 hPa1016,6 hPa
18:15
1022,3 hPa
06:45
3,2 km/h
W-NW
19,0 km/h
15:35  
---
54 %26 %
17:30
83 %
07:45
48,7 klux92,0 klux
14:05
12:43 Std 
29.
April
16,2 C10,2 C
06:11
23,7 C
16:26
1018,0 hPa1014,3 hPa
18:21
1019,9 hPa
06:11
4,1 km/h
SO
20,7 km/h
17:26  
---
59 %37 %
16:51
80 %
08:16
46,5 klux85,3 klux
13:16
11:55 Std 
30.
April
12,6 C4,0 C
06:32
22,0 C
17:02
1016,1 hPa1013,4 hPa
17:02
1018,7 hPa
07:22
4,5 km/h
O
28,5 km/h
13:17  
---
51 %34 %
17:12
73 %
07:42
51,2 klux90,1 klux
13:02
13:05 Std 



April
2007

Temperatur

  

Luftdruck

  

Wind

  

Regen

  

Luftfeuchte

  

Helligkeit

Sonnen-
schein

Min

Max

Min

Max

Max

Max

Min

Max

Max

Max

12,9 C

-2,8 C

06:57 Uhr
05.04.2007

30,7 C

16:57 Uhr
15.04.2007

1020,8 hPa

1013,1 hPa

14:45 Uhr
03.04.2007

1029,4 hPa

07:39 Uhr
02.04.2007

4,7 km/h

SO

36,2 km/h

15:26 Uhr
09.04.2007

1,7 l/m

55 Minuten
02.04.2007

59 %

22 %

17:02 Uhr
15.04.2007

90 %

06:38 Uhr
11.04.2007

43,1 klux

109,0 klux

13:45 Uhr
18.04.2007

13:05 Std

am
30.04.2007

Gesamt

Gesamt

2,0 l/m

3 Tage
2:00 h

294:30 Std


Wetter-Diagramme April 2007     Heinzenberg / Taunus   
TemperaturLuftfeuchte
SolarstrahlungLuftdruck
HelligkeitSonnenschein
RegenmengeRegendauer
Wind-GeschwindigkeitWind-Richtung